Year,Month,Day,Hour,Minute,Value (Times are PST for windgust in km/hr)
2017,08,04,00,00,17.70
2017,08,04,00,01,11.30
2017,08,04,00,02,17.70
2017,08,04,00,03,11.30
2017,08,04,00,04,16.10
2017,08,04,00,05,11.30
2017,08,04,00,06,16.10
2017,08,04,00,07,20.90
2017,08,04,00,08,14.50
2017,08,04,00,09,14.50
2017,08,04,00,10,11.30
2017,08,04,00,11,16.10
2017,08,04,00,12,16.10
2017,08,04,00,13,17.70
2017,08,04,00,14,27.40
2017,08,04,00,15,14.50
2017,08,04,00,16,19.30
2017,08,04,00,17,27.40
2017,08,04,00,18,17.70
2017,08,04,00,19,22.50
2017,08,04,00,20,24.20
2017,08,04,00,21,11.30
2017,08,04,00,22,17.70
2017,08,04,00,23,17.70
2017,08,04,00,24,20.90
2017,08,04,00,25,22.50
2017,08,04,00,26,22.50
2017,08,04,00,27,17.70
2017,08,04,00,28,19.30
2017,08,04,00,29,16.10
2017,08,04,00,30,22.50
2017,08,04,00,31,17.70
2017,08,04,00,32,20.90
2017,08,04,00,33,17.70
2017,08,04,00,34,20.90
2017,08,04,00,35,19.30
2017,08,04,00,36,12.90
2017,08,04,00,37,9.60
2017,08,04,00,38,9.60
2017,08,04,00,39,20.90
2017,08,04,00,40,16.10
2017,08,04,00,41,16.10
2017,08,04,00,42,11.30
2017,08,04,00,43,16.10
2017,08,04,00,44,19.30
2017,08,04,00,45,9.60
2017,08,04,00,46,11.30
2017,08,04,00,47,9.60
2017,08,04,00,48,11.30
2017,08,04,00,49,9.60
2017,08,04,00,50,9.60
2017,08,04,00,51,9.60
2017,08,04,00,52,8.10
2017,08,04,00,53,11.30
2017,08,04,00,54,19.30
2017,08,04,00,55,9.60
2017,08,04,00,56,16.10
2017,08,04,00,57,14.50
2017,08,04,00,58,17.70
2017,08,04,00,59,9.60
2017,08,04,01,00,16.10
2017,08,04,01,01,9.60
2017,08,04,01,02,14.50
2017,08,04,01,03,11.30
2017,08,04,01,04,9.60
2017,08,04,01,05,11.30
2017,08,04,01,06,8.10
2017,08,04,01,07,19.30
2017,08,04,01,08,12.90
2017,08,04,01,09,16.10
2017,08,04,01,10,11.30
2017,08,04,01,11,20.90
2017,08,04,01,12,16.10
2017,08,04,01,13,11.30
2017,08,04,01,14,20.90
2017,08,04,01,15,16.10
2017,08,04,01,16,17.70
2017,08,04,01,17,16.10
2017,08,04,01,18,17.70
2017,08,04,01,19,22.50
2017,08,04,01,20,17.70
2017,08,04,01,21,12.90
2017,08,04,01,22,17.70
2017,08,04,01,23,19.30
2017,08,04,01,24,22.50
2017,08,04,01,25,25.70
2017,08,04,01,26,17.70
2017,08,04,01,27,19.30
2017,08,04,01,28,11.30
2017,08,04,01,29,25.70
2017,08,04,01,30,20.90
2017,08,04,01,31,17.70
2017,08,04,01,32,19.30
2017,08,04,01,33,22.50
2017,08,04,01,34,25.70
2017,08,04,01,35,16.10
2017,08,04,01,36,20.90
2017,08,04,01,37,19.30
2017,08,04,01,38,22.50
2017,08,04,01,39,22.50
2017,08,04,01,40,19.30
2017,08,04,01,41,20.90
2017,08,04,01,42,17.70
2017,08,04,01,43,14.50
2017,08,04,01,44,19.30
2017,08,04,01,45,19.30
2017,08,04,01,46,14.50
2017,08,04,01,47,24.20
2017,08,04,01,48,24.20
2017,08,04,01,49,16.10
2017,08,04,01,50,25.70
2017,08,04,01,51,27.40
2017,08,04,01,52,24.20
2017,08,04,01,53,11.30
2017,08,04,01,54,27.40
2017,08,04,01,55,30.60
2017,08,04,01,56,29.00
2017,08,04,01,57,22.50
2017,08,04,01,58,22.50
2017,08,04,01,59,14.50
2017,08,04,02,00,20.90
2017,08,04,02,01,11.30
2017,08,04,02,02,16.10
2017,08,04,02,03,24.20
2017,08,04,02,04,14.50
2017,08,04,02,05,6.40
2017,08,04,02,06,16.10
2017,08,04,02,07,9.60
2017,08,04,02,08,8.10
2017,08,04,02,09,8.10
2017,08,04,02,10,6.40
2017,08,04,02,11,16.10
2017,08,04,02,12,6.40
2017,08,04,02,13,11.30
2017,08,04,02,14,9.60
2017,08,04,02,15,8.10
2017,08,04,02,16,16.10
2017,08,04,02,17,14.50
2017,08,04,02,18,8.10
2017,08,04,02,19,4.80
2017,08,04,02,20,9.60
2017,08,04,02,21,9.60
2017,08,04,02,22,8.10
2017,08,04,02,23,8.10
2017,08,04,02,24,12.90
2017,08,04,02,25,14.50
2017,08,04,02,26,6.40
2017,08,04,02,27,11.30
2017,08,04,02,28,11.30
2017,08,04,02,29,6.40
2017,08,04,02,30,6.40
2017,08,04,02,31,8.10
2017,08,04,02,32,6.40
2017,08,04,02,33,6.40
2017,08,04,02,34,6.40
2017,08,04,02,35,16.10
2017,08,04,02,36,11.30
2017,08,04,02,37,6.40
2017,08,04,02,38,4.80
2017,08,04,02,39,6.40
2017,08,04,02,40,3.20
2017,08,04,02,41,6.40
2017,08,04,02,42,6.40
2017,08,04,02,43,4.80
2017,08,04,02,44,6.40
2017,08,04,02,45,3.20
2017,08,04,02,46,1.60
2017,08,04,02,47,3.20
2017,08,04,02,48,4.80
2017,08,04,02,49,4.80
2017,08,04,02,50,4.80
2017,08,04,02,51,4.80
2017,08,04,02,52,3.20
2017,08,04,02,53,1.60
2017,08,04,02,54,3.20
2017,08,04,02,55,4.80
2017,08,04,02,56,3.20
2017,08,04,02,57,1.60
2017,08,04,03,02,8.10
2017,08,04,03,03,9.60
2017,08,04,03,04,3.20
2017,08,04,03,05,4.80
2017,08,04,03,06,6.40
2017,08,04,03,07,4.80
2017,08,04,03,08,11.30
2017,08,04,03,09,3.20
2017,08,04,03,10,4.80
2017,08,04,03,11,1.60
2017,08,04,03,12,1.60
2017,08,04,03,13,1.60
2017,08,04,03,14,1.60
2017,08,04,03,15,1.60
2017,08,04,03,16,3.20
2017,08,04,03,19,1.60
2017,08,04,03,20,1.60
2017,08,04,03,22,1.60
2017,08,04,03,23,4.80
2017,08,04,03,24,4.80
2017,08,04,03,25,3.20
2017,08,04,03,26,4.80
2017,08,04,03,27,1.60
2017,08,04,03,28,3.20
2017,08,04,03,29,3.20
2017,08,04,03,30,8.10
2017,08,04,03,31,4.80
2017,08,04,03,32,3.20
2017,08,04,03,33,4.80
2017,08,04,03,34,8.10
2017,08,04,03,35,4.80
2017,08,04,03,36,4.80
2017,08,04,03,37,4.80
2017,08,04,03,38,4.80
2017,08,04,03,39,4.80
2017,08,04,03,40,6.40
2017,08,04,03,41,9.60
2017,08,04,03,42,8.10
2017,08,04,03,43,3.20
2017,08,04,03,44,1.60
2017,08,04,03,45,3.20
2017,08,04,03,46,4.80
2017,08,04,03,47,4.80
2017,08,04,03,48,6.40
2017,08,04,03,49,8.10
2017,08,04,03,50,6.40
2017,08,04,03,51,3.20
2017,08,04,03,52,3.20
2017,08,04,03,53,3.20
2017,08,04,03,54,1.60
2017,08,04,03,56,1.60
2017,08,04,03,57,1.60
2017,08,04,04,00,4.80
2017,08,04,04,01,4.80
2017,08,04,04,02,4.80
2017,08,04,04,03,4.80
2017,08,04,04,04,4.80
2017,08,04,04,05,4.80
2017,08,04,04,06,6.40
2017,08,04,04,07,3.20
2017,08,04,04,08,1.60
2017,08,04,04,09,1.60
2017,08,04,04,10,1.60
2017,08,04,04,14,1.60
2017,08,04,04,16,3.20
2017,08,04,04,17,4.80
2017,08,04,04,18,3.20
2017,08,04,04,19,6.40
2017,08,04,04,20,3.20
2017,08,04,04,21,3.20
2017,08,04,04,23,1.60
2017,08,04,04,24,1.60
2017,08,04,04,25,1.60
2017,08,04,04,26,1.60
2017,08,04,04,27,3.20
2017,08,04,04,28,3.20
2017,08,04,04,29,3.20
2017,08,04,04,30,1.60
2017,08,04,04,36,1.60
2017,08,04,04,38,1.60
2017,08,04,04,39,3.20
2017,08,04,04,40,1.60
2017,08,04,04,41,1.60
2017,08,04,04,43,1.60
2017,08,04,04,44,3.20
2017,08,04,04,45,4.80
2017,08,04,04,46,3.20
2017,08,04,04,47,6.40
2017,08,04,04,48,8.10
2017,08,04,04,49,6.40
2017,08,04,04,50,8.10
2017,08,04,04,51,11.30
2017,08,04,04,52,6.40
2017,08,04,04,53,4.80
2017,08,04,04,54,4.80
2017,08,04,04,55,1.60
2017,08,04,04,56,1.60
2017,08,04,04,58,1.60
2017,08,04,04,59,1.60
2017,08,04,05,00,1.60
2017,08,04,05,02,1.60
2017,08,04,05,03,1.60
2017,08,04,05,04,4.80
2017,08,04,05,05,3.20
2017,08,04,05,06,3.20
2017,08,04,05,07,3.20
2017,08,04,05,08,1.60
2017,08,04,05,09,3.20
2017,08,04,05,10,3.20
2017,08,04,05,11,4.80
2017,08,04,05,12,3.20
2017,08,04,05,13,3.20
2017,08,04,05,14,1.60
2017,08,04,05,15,3.20
2017,08,04,05,16,3.20
2017,08,04,05,19,1.60
2017,08,04,05,20,1.60
2017,08,04,05,22,1.60
2017,08,04,05,23,1.60
2017,08,04,05,24,1.60
2017,08,04,05,28,1.60
2017,08,04,05,29,1.60
2017,08,04,05,30,4.80
2017,08,04,05,31,8.10
2017,08,04,05,32,6.40
2017,08,04,05,33,4.80
2017,08,04,05,34,4.80
2017,08,04,05,35,3.20
2017,08,04,05,36,1.60
2017,08,04,05,38,1.60
2017,08,04,05,41,1.60
2017,08,04,05,42,1.60
2017,08,04,05,43,3.20
2017,08,04,05,44,3.20
2017,08,04,05,45,1.60
2017,08,04,05,46,1.60
2017,08,04,05,47,1.60
2017,08,04,05,48,1.60
2017,08,04,05,49,3.20
2017,08,04,05,50,1.60
2017,08,04,05,51,1.60
2017,08,04,05,52,3.20
2017,08,04,05,53,3.20
2017,08,04,06,27,1.60
2017,08,04,06,28,1.60
2017,08,04,06,29,3.20
2017,08,04,06,30,3.20
2017,08,04,06,31,1.60
2017,08,04,06,33,1.60
2017,08,04,06,34,1.60
2017,08,04,06,41,1.60
2017,08,04,06,42,4.80
2017,08,04,06,43,3.20
2017,08,04,06,44,3.20
2017,08,04,06,45,3.20
2017,08,04,06,46,3.20
2017,08,04,06,47,3.20
2017,08,04,06,48,3.20
2017,08,04,06,49,1.60
2017,08,04,06,50,1.60
2017,08,04,06,51,1.60
2017,08,04,06,52,1.60
2017,08,04,06,53,3.20
2017,08,04,06,54,1.60
2017,08,04,06,56,1.60
2017,08,04,06,57,1.60
2017,08,04,07,11,3.20
2017,08,04,07,12,3.20
2017,08,04,07,13,3.20
2017,08,04,07,14,1.60
2017,08,04,07,15,1.60
2017,08,04,07,18,1.60
2017,08,04,07,19,1.60
2017,08,04,07,21,1.60
2017,08,04,07,22,1.60
2017,08,04,07,23,1.60
2017,08,04,07,26,3.20
2017,08,04,07,27,3.20
2017,08,04,07,28,3.20
2017,08,04,07,29,1.60
2017,08,04,07,31,1.60
2017,08,04,07,32,1.60
2017,08,04,07,33,1.60
2017,08,04,07,34,4.80
2017,08,04,07,35,3.20
2017,08,04,07,36,3.20
2017,08,04,07,37,4.80
2017,08,04,07,38,3.20
2017,08,04,07,39,3.20
2017,08,04,07,40,1.60
2017,08,04,07,41,4.80
2017,08,04,07,42,4.80
2017,08,04,07,43,4.80
2017,08,04,07,44,1.60
2017,08,04,07,45,4.80
2017,08,04,07,46,4.80
2017,08,04,07,47,3.20
2017,08,04,07,48,1.60
2017,08,04,07,49,6.40
2017,08,04,07,50,3.20
2017,08,04,07,51,3.20
2017,08,04,07,52,3.20
2017,08,04,07,53,3.20
2017,08,04,07,54,1.60
2017,08,04,07,55,1.60
2017,08,04,07,56,1.60
2017,08,04,08,16,1.60
2017,08,04,08,20,1.60
2017,08,04,08,21,1.60
2017,08,04,08,23,1.60
2017,08,04,08,24,1.60
2017,08,04,08,25,1.60
2017,08,04,08,26,3.20
2017,08,04,08,27,1.60
2017,08,04,08,29,1.60
2017,08,04,08,30,1.60
2017,08,04,08,31,3.20
2017,08,04,08,32,3.20
2017,08,04,08,33,3.20
2017,08,04,08,34,3.20
2017,08,04,08,35,1.60
2017,08,04,08,39,3.20
2017,08,04,08,40,3.20
2017,08,04,08,41,3.20
2017,08,04,08,42,1.60
2017,08,04,08,43,1.60
2017,08,04,08,44,3.20
2017,08,04,08,50,1.60
2017,08,04,08,51,1.60
2017,08,04,08,53,1.60
2017,08,04,08,54,1.60
2017,08,04,08,55,1.60
2017,08,04,08,56,3.20
2017,08,04,08,57,1.60
2017,08,04,08,59,1.60
2017,08,04,09,00,1.60
2017,08,04,09,01,1.60
2017,08,04,09,02,3.20
2017,08,04,09,03,6.40
2017,08,04,09,04,6.40
2017,08,04,09,05,12.90
2017,08,04,09,06,8.10
2017,08,04,09,07,8.10
2017,08,04,09,08,9.60
2017,08,04,09,09,9.60
2017,08,04,09,10,9.60
2017,08,04,09,11,6.40
2017,08,04,09,12,6.40
2017,08,04,09,13,1.60
2017,08,04,09,14,3.20
2017,08,04,09,15,1.60
2017,08,04,09,16,3.20
2017,08,04,09,17,4.80
2017,08,04,09,18,6.40
2017,08,04,09,19,4.80
2017,08,04,09,20,8.10
2017,08,04,09,21,8.10
2017,08,04,09,22,4.80
2017,08,04,09,23,12.90
2017,08,04,09,24,9.60
2017,08,04,09,25,8.10
2017,08,04,09,26,4.80
2017,08,04,09,27,6.40
2017,08,04,09,28,4.80
2017,08,04,09,29,3.20
2017,08,04,09,30,4.80
2017,08,04,09,31,4.80
2017,08,04,09,32,4.80
2017,08,04,09,33,3.20
2017,08,04,09,34,8.10
2017,08,04,09,35,8.10
2017,08,04,09,36,4.80
2017,08,04,09,38,4.80
2017,08,04,09,39,4.80
2017,08,04,09,40,4.80
2017,08,04,09,41,9.60
2017,08,04,09,42,9.60
2017,08,04,09,43,3.20
2017,08,04,09,44,1.60
2017,08,04,09,45,1.60
2017,08,04,09,46,1.60
2017,08,04,09,47,1.60
2017,08,04,09,48,3.20
2017,08,04,09,49,3.20
2017,08,04,09,50,3.20
2017,08,04,09,51,3.20
2017,08,04,09,52,3.20
2017,08,04,09,53,3.20
2017,08,04,09,54,3.20
2017,08,04,09,55,8.10
2017,08,04,09,56,6.40
2017,08,04,09,57,6.40
2017,08,04,09,58,3.20
2017,08,04,09,59,3.20
2017,08,04,10,00,8.10
2017,08,04,10,01,4.80
2017,08,04,10,02,4.80
2017,08,04,10,03,4.80
2017,08,04,10,04,4.80
2017,08,04,10,05,8.10
2017,08,04,10,06,9.60
2017,08,04,10,07,4.80
2017,08,04,10,08,1.60
2017,08,04,10,09,6.40
2017,08,04,10,10,9.60
2017,08,04,10,11,8.10
2017,08,04,10,12,8.10
2017,08,04,10,13,8.10
2017,08,04,10,14,6.40
2017,08,04,10,15,8.10
2017,08,04,10,16,11.30
2017,08,04,10,17,11.30
2017,08,04,10,18,14.50
2017,08,04,10,19,12.90
2017,08,04,10,20,8.10
2017,08,04,10,21,8.10
2017,08,04,10,22,9.60
2017,08,04,10,23,11.30
2017,08,04,10,24,11.30
2017,08,04,10,25,6.40
2017,08,04,10,26,6.40
2017,08,04,10,27,6.40
2017,08,04,10,28,4.80
2017,08,04,10,29,1.60
2017,08,04,10,30,3.20
2017,08,04,10,31,4.80
2017,08,04,10,32,1.60
2017,08,04,10,33,1.60
2017,08,04,10,35,4.80
2017,08,04,10,36,8.10
2017,08,04,10,37,6.40
2017,08,04,10,38,4.80
2017,08,04,10,39,4.80
2017,08,04,10,40,4.80
2017,08,04,10,41,4.80
2017,08,04,10,42,4.80
2017,08,04,10,43,3.20
2017,08,04,10,44,9.60
2017,08,04,10,45,8.10
2017,08,04,10,46,6.40
2017,08,04,10,47,4.80
2017,08,04,10,48,6.40
2017,08,04,10,49,4.80
2017,08,04,10,50,8.10
2017,08,04,10,51,8.10
2017,08,04,10,52,8.10
2017,08,04,10,53,8.10
2017,08,04,10,54,9.60
2017,08,04,10,55,9.60
2017,08,04,10,56,8.10
2017,08,04,10,57,4.80
2017,08,04,10,58,6.40
2017,08,04,10,59,8.10
2017,08,04,11,00,1.60
2017,08,04,11,01,3.20
2017,08,04,11,02,6.40
2017,08,04,11,03,9.60
2017,08,04,11,04,9.60
2017,08,04,11,05,4.80
2017,08,04,11,06,9.60
2017,08,04,11,07,8.10
2017,08,04,11,08,8.10
2017,08,04,11,09,9.60
2017,08,04,11,10,8.10
2017,08,04,11,11,6.40
2017,08,04,11,12,3.20
2017,08,04,11,13,6.40
2017,08,04,11,14,4.80
2017,08,04,11,15,6.40
2017,08,04,11,16,6.40
2017,08,04,11,17,8.10
2017,08,04,11,18,8.10
2017,08,04,11,19,6.40
2017,08,04,11,20,4.80
2017,08,04,11,21,4.80
2017,08,04,11,22,6.40
2017,08,04,11,23,8.10
2017,08,04,11,24,6.40
2017,08,04,11,25,4.80
2017,08,04,11,26,6.40
2017,08,04,11,27,8.10
2017,08,04,11,28,8.10
2017,08,04,11,29,16.10
2017,08,04,11,30,6.40
2017,08,04,11,31,8.10
2017,08,04,11,32,8.10
2017,08,04,11,33,6.40
2017,08,04,11,34,9.60
2017,08,04,11,35,16.10
2017,08,04,11,36,12.90
2017,08,04,11,37,11.30
2017,08,04,11,38,8.10
2017,08,04,11,39,6.40
2017,08,04,11,40,8.10
2017,08,04,11,41,6.40
2017,08,04,11,42,8.10
2017,08,04,11,43,4.80
2017,08,04,11,44,6.40
2017,08,04,11,45,4.80
2017,08,04,11,46,4.80
2017,08,04,11,47,8.10
2017,08,04,11,48,9.60
2017,08,04,11,49,8.10
2017,08,04,11,50,9.60
2017,08,04,11,51,8.10
2017,08,04,11,52,9.60
2017,08,04,11,53,6.40
2017,08,04,11,54,4.80
2017,08,04,11,55,8.10
2017,08,04,11,56,4.80
2017,08,04,11,57,1.60
2017,08,04,11,58,4.80
2017,08,04,12,00,6.40
2017,08,04,12,01,1.60
2017,08,04,12,02,3.20
2017,08,04,12,03,6.40
2017,08,04,12,04,6.40
2017,08,04,12,05,11.30
2017,08,04,12,06,6.40
2017,08,04,12,07,4.80
2017,08,04,12,08,9.60
2017,08,04,12,09,8.10
2017,08,04,12,10,9.60
2017,08,04,12,11,9.60
2017,08,04,12,12,6.40
2017,08,04,12,13,16.10
2017,08,04,12,14,8.10
2017,08,04,12,15,9.60
2017,08,04,12,16,9.60
2017,08,04,12,17,8.10
2017,08,04,12,18,9.60
2017,08,04,12,19,8.10
2017,08,04,12,20,8.10
2017,08,04,12,21,8.10
2017,08,04,12,22,8.10
2017,08,04,12,23,6.40
2017,08,04,12,24,11.30
2017,08,04,12,25,9.60
2017,08,04,12,26,8.10
2017,08,04,12,27,9.60
2017,08,04,12,28,11.30
2017,08,04,12,29,9.60
2017,08,04,12,30,6.40
2017,08,04,12,31,8.10
2017,08,04,12,32,9.60
2017,08,04,12,33,11.30
2017,08,04,12,34,9.60
2017,08,04,12,35,8.10
2017,08,04,12,36,14.50
2017,08,04,12,37,12.90
2017,08,04,12,38,14.50
2017,08,04,12,39,11.30
2017,08,04,12,40,9.60
2017,08,04,12,41,11.30
2017,08,04,12,42,9.60
2017,08,04,12,43,9.60
2017,08,04,12,44,4.80
2017,08,04,12,45,11.30
2017,08,04,12,46,8.10
2017,08,04,12,47,11.30
2017,08,04,12,48,16.10
2017,08,04,12,49,11.30
2017,08,04,12,50,4.80
2017,08,04,12,51,8.10
2017,08,04,12,52,9.60
2017,08,04,12,53,8.10
2017,08,04,12,54,9.60
2017,08,04,12,55,6.40
2017,08,04,12,56,11.30
2017,08,04,12,57,11.30
2017,08,04,12,58,6.40
2017,08,04,12,59,6.40
2017,08,04,13,00,9.60
2017,08,04,13,01,8.10
2017,08,04,13,02,9.60
2017,08,04,13,03,6.40
2017,08,04,13,04,6.40
2017,08,04,13,05,9.60
2017,08,04,13,06,8.10
2017,08,04,13,07,9.60
2017,08,04,13,08,8.10
2017,08,04,13,09,6.40
2017,08,04,13,10,14.50
2017,08,04,13,11,8.10
2017,08,04,13,12,12.90
2017,08,04,13,13,9.60
2017,08,04,13,14,11.30
2017,08,04,13,15,11.30
2017,08,04,13,16,17.70
2017,08,04,13,17,11.30
2017,08,04,13,18,8.10
2017,08,04,13,19,8.10
2017,08,04,13,20,9.60
2017,08,04,13,21,9.60
2017,08,04,13,22,11.30
2017,08,04,13,23,9.60
2017,08,04,13,24,9.60
2017,08,04,13,25,12.90
2017,08,04,13,26,9.60
2017,08,04,13,27,8.10
2017,08,04,13,28,11.30
2017,08,04,13,29,14.50
2017,08,04,13,30,14.50
2017,08,04,13,31,6.40
2017,08,04,13,32,9.60
2017,08,04,13,33,8.10
2017,08,04,13,34,8.10
2017,08,04,13,35,9.60
2017,08,04,13,36,8.10
2017,08,04,13,37,8.10
2017,08,04,13,38,3.20
2017,08,04,13,39,17.70
2017,08,04,13,40,12.90
2017,08,04,13,41,11.30
2017,08,04,13,42,11.30
2017,08,04,13,43,11.30
2017,08,04,13,44,11.30
2017,08,04,13,45,11.30
2017,08,04,13,46,16.10
2017,08,04,13,47,14.50
2017,08,04,13,48,8.10
2017,08,04,13,49,9.60
2017,08,04,13,50,9.60
2017,08,04,13,51,11.30
2017,08,04,13,52,11.30
2017,08,04,13,53,8.10
2017,08,04,13,54,6.40
2017,08,04,13,55,6.40
2017,08,04,13,56,9.60
2017,08,04,13,57,6.40
2017,08,04,13,58,6.40
2017,08,04,13,59,4.80
2017,08,04,14,00,6.40
2017,08,04,14,01,8.10
2017,08,04,14,02,9.60
2017,08,04,14,03,8.10
2017,08,04,14,04,6.40
2017,08,04,14,05,3.20
2017,08,04,14,06,6.40
2017,08,04,14,07,9.60
2017,08,04,14,08,4.80
2017,08,04,14,09,3.20
2017,08,04,14,10,4.80
2017,08,04,14,11,6.40
2017,08,04,14,12,3.20
2017,08,04,14,13,8.10
2017,08,04,14,14,6.40
2017,08,04,14,15,6.40
2017,08,04,14,16,8.10
2017,08,04,14,17,6.40
2017,08,04,14,18,4.80
2017,08,04,14,19,6.40
2017,08,04,14,20,9.60
2017,08,04,14,21,6.40
2017,08,04,14,22,6.40
2017,08,04,14,23,9.60
2017,08,04,14,24,4.80
2017,08,04,14,25,6.40
2017,08,04,14,26,8.10
2017,08,04,14,27,4.80
2017,08,04,14,28,8.10
2017,08,04,14,29,8.10
2017,08,04,14,30,6.40
2017,08,04,14,31,8.10
2017,08,04,14,32,6.40
2017,08,04,14,33,6.40
2017,08,04,14,34,4.80
2017,08,04,14,35,8.10
2017,08,04,14,36,8.10
2017,08,04,14,37,8.10
2017,08,04,14,38,6.40
2017,08,04,14,39,6.40
2017,08,04,14,40,6.40
2017,08,04,14,41,6.40
2017,08,04,14,42,6.40
2017,08,04,14,43,4.80
2017,08,04,14,44,8.10
2017,08,04,14,45,4.80
2017,08,04,14,46,8.10
2017,08,04,14,47,6.40
2017,08,04,14,48,4.80
2017,08,04,14,49,4.80
2017,08,04,14,50,3.20
2017,08,04,14,51,6.40
2017,08,04,14,52,8.10
2017,08,04,14,53,4.80
2017,08,04,14,54,6.40
2017,08,04,14,55,8.10
2017,08,04,14,56,6.40
2017,08,04,14,57,6.40
2017,08,04,14,58,8.10
2017,08,04,14,59,8.10
2017,08,04,15,00,8.10
2017,08,04,15,01,6.40
2017,08,04,15,02,6.40
2017,08,04,15,03,6.40
2017,08,04,15,04,4.80
2017,08,04,15,05,8.10
2017,08,04,15,06,6.40
2017,08,04,15,07,8.10
2017,08,04,15,08,4.80
2017,08,04,15,09,4.80
2017,08,04,15,10,9.60
2017,08,04,15,11,8.10
2017,08,04,15,12,6.40
2017,08,04,15,13,4.80
2017,08,04,15,14,4.80
2017,08,04,15,15,6.40
2017,08,04,15,16,6.40
2017,08,04,15,17,8.10
2017,08,04,15,18,8.10
2017,08,04,15,19,9.60
2017,08,04,15,20,8.10
2017,08,04,15,21,6.40
2017,08,04,15,22,6.40
2017,08,04,15,23,6.40
2017,08,04,15,24,6.40
2017,08,04,15,25,6.40
2017,08,04,15,26,8.10
2017,08,04,15,27,6.40
2017,08,04,15,28,6.40
2017,08,04,15,29,9.60
2017,08,04,15,30,9.60
2017,08,04,15,31,4.80
2017,08,04,15,32,6.40
2017,08,04,15,33,3.20
2017,08,04,15,34,4.80
2017,08,04,15,35,4.80
2017,08,04,15,36,4.80
2017,08,04,15,37,3.20
2017,08,04,15,38,3.20
2017,08,04,15,39,3.20
2017,08,04,15,40,6.40
2017,08,04,15,41,4.80
2017,08,04,15,42,4.80
2017,08,04,15,43,4.80
2017,08,04,15,44,6.40
2017,08,04,15,45,4.80
2017,08,04,15,46,4.80
2017,08,04,15,47,6.40
2017,08,04,15,48,6.40
2017,08,04,15,49,6.40
2017,08,04,15,50,8.10
2017,08,04,15,51,8.10
2017,08,04,15,52,6.40
2017,08,04,15,53,6.40
2017,08,04,15,54,6.40
2017,08,04,15,55,4.80
2017,08,04,15,56,8.10
2017,08,04,15,57,8.10
2017,08,04,15,58,8.10
2017,08,04,15,59,4.80
2017,08,04,16,00,4.80
2017,08,04,16,01,4.80
2017,08,04,16,02,6.40
2017,08,04,16,03,4.80
2017,08,04,16,04,6.40
2017,08,04,16,05,6.40
2017,08,04,16,06,6.40
2017,08,04,16,07,4.80
2017,08,04,16,08,4.80
2017,08,04,16,09,4.80
2017,08,04,16,10,6.40
2017,08,04,16,11,4.80
2017,08,04,16,12,3.20
2017,08,04,16,13,6.40
2017,08,04,16,14,4.80
2017,08,04,16,15,4.80
2017,08,04,16,16,6.40
2017,08,04,16,17,6.40
2017,08,04,16,18,3.20
2017,08,04,16,19,4.80
2017,08,04,16,20,4.80
2017,08,04,16,21,4.80
2017,08,04,16,22,1.60
2017,08,04,16,23,4.80
2017,08,04,16,24,4.80
2017,08,04,16,25,3.20
2017,08,04,16,26,3.20
2017,08,04,16,27,4.80
2017,08,04,16,28,4.80
2017,08,04,16,29,4.80
2017,08,04,16,30,4.80
2017,08,04,16,31,3.20
2017,08,04,16,32,4.80
2017,08,04,16,33,3.20
2017,08,04,16,34,3.20
2017,08,04,16,35,3.20
2017,08,04,16,36,3.20
2017,08,04,16,37,1.60
2017,08,04,16,38,3.20
2017,08,04,16,39,3.20
2017,08,04,16,40,6.40
2017,08,04,16,41,4.80
2017,08,04,16,42,4.80
2017,08,04,16,43,4.80
2017,08,04,16,44,6.40
2017,08,04,16,45,4.80
2017,08,04,16,46,4.80
2017,08,04,16,47,4.80
2017,08,04,16,48,4.80
2017,08,04,16,49,4.80
2017,08,04,16,50,4.80
2017,08,04,16,51,3.20
2017,08,04,16,52,3.20
2017,08,04,16,53,3.20
2017,08,04,16,54,3.20
2017,08,04,16,55,4.80
2017,08,04,16,56,4.80
2017,08,04,16,57,4.80
2017,08,04,16,58,3.20
2017,08,04,16,59,4.80
2017,08,04,17,00,4.80
2017,08,04,17,01,4.80
2017,08,04,17,02,3.20
2017,08,04,17,03,3.20
2017,08,04,17,04,3.20
2017,08,04,17,05,3.20
2017,08,04,17,06,4.80
2017,08,04,17,07,4.80
2017,08,04,17,08,4.80
2017,08,04,17,09,4.80
2017,08,04,17,10,4.80
2017,08,04,17,11,3.20
2017,08,04,17,12,4.80
2017,08,04,17,13,4.80
2017,08,04,17,14,3.20
2017,08,04,17,15,3.20
2017,08,04,17,16,4.80
2017,08,04,17,17,3.20
2017,08,04,17,18,3.20
2017,08,04,17,19,1.60
2017,08,04,17,21,3.20
2017,08,04,17,22,3.20
2017,08,04,17,23,3.20
2017,08,04,17,24,3.20
2017,08,04,17,25,3.20
2017,08,04,17,26,3.20
2017,08,04,17,27,4.80
2017,08,04,17,28,4.80
2017,08,04,17,29,4.80
2017,08,04,17,30,4.80
2017,08,04,17,31,4.80
2017,08,04,17,32,4.80
2017,08,04,17,33,3.20
2017,08,04,17,34,3.20
2017,08,04,17,35,4.80
2017,08,04,17,36,4.80
2017,08,04,17,37,3.20
2017,08,04,17,38,4.80
2017,08,04,17,39,4.80
2017,08,04,17,40,3.20
2017,08,04,17,41,4.80
2017,08,04,17,42,4.80
2017,08,04,17,43,4.80
2017,08,04,17,44,6.40
2017,08,04,17,45,4.80
2017,08,04,17,46,4.80
2017,08,04,17,47,4.80
2017,08,04,17,48,4.80
2017,08,04,17,49,6.40
2017,08,04,17,50,8.10
2017,08,04,17,51,6.40
2017,08,04,17,52,4.80
2017,08,04,17,53,4.80
2017,08,04,17,54,4.80
2017,08,04,17,55,6.40
2017,08,04,17,56,8.10
2017,08,04,17,57,8.10
2017,08,04,17,58,8.10
2017,08,04,17,59,8.10
2017,08,04,18,00,6.40
2017,08,04,18,01,6.40
2017,08,04,18,02,8.10
2017,08,04,18,03,6.40
2017,08,04,18,04,6.40
2017,08,04,18,05,6.40
2017,08,04,18,06,4.80
2017,08,04,18,07,4.80
2017,08,04,18,08,4.80
2017,08,04,18,09,4.80
2017,08,04,18,10,6.40
2017,08,04,18,11,4.80
2017,08,04,18,12,6.40
2017,08,04,18,13,6.40
2017,08,04,18,14,4.80
2017,08,04,18,15,6.40
2017,08,04,18,16,3.20
2017,08,04,18,17,3.20
2017,08,04,18,18,6.40
2017,08,04,18,19,6.40
2017,08,04,18,20,4.80
2017,08,04,18,21,4.80
2017,08,04,18,22,6.40
2017,08,04,18,23,6.40
2017,08,04,18,24,6.40
2017,08,04,18,25,4.80
2017,08,04,18,26,1.60
2017,08,04,18,27,4.80
2017,08,04,18,28,3.20
2017,08,04,18,29,4.80
2017,08,04,18,30,1.60
2017,08,04,18,31,3.20
2017,08,04,18,32,3.20
2017,08,04,18,33,4.80
2017,08,04,18,34,3.20
2017,08,04,18,35,3.20
2017,08,04,18,36,3.20
2017,08,04,18,37,3.20
2017,08,04,18,38,3.20
2017,08,04,18,39,3.20
2017,08,04,18,40,4.80
2017,08,04,18,41,4.80
2017,08,04,18,42,1.60
2017,08,04,18,43,3.20
2017,08,04,18,44,3.20
2017,08,04,18,45,3.20
2017,08,04,18,46,3.20
2017,08,04,18,47,1.60
2017,08,04,18,48,1.60
2017,08,04,18,49,1.60
2017,08,04,18,50,3.20
2017,08,04,18,51,1.60
2017,08,04,18,52,3.20
2017,08,04,18,53,4.80
2017,08,04,18,54,3.20
2017,08,04,18,55,1.60
2017,08,04,18,56,1.60
2017,08,04,18,57,1.60
2017,08,04,18,58,1.60
2017,08,04,18,59,1.60
2017,08,04,19,04,1.60
2017,08,04,19,05,1.60
2017,08,04,19,18,1.60
2017,08,04,19,53,1.60
2017,08,04,19,55,1.60
2017,08,04,19,56,1.60
2017,08,04,19,57,1.60
2017,08,04,19,58,1.60
2017,08,04,19,59,3.20
2017,08,04,20,00,3.20
2017,08,04,20,01,3.20
2017,08,04,20,02,3.20
2017,08,04,20,03,1.60
2017,08,04,20,04,3.20
2017,08,04,20,05,3.20
2017,08,04,20,06,3.20
2017,08,04,20,07,3.20
2017,08,04,20,08,3.20
2017,08,04,20,09,3.20
2017,08,04,20,10,4.80
2017,08,04,20,11,1.60
2017,08,04,20,12,1.60
2017,08,04,20,13,1.60
2017,08,04,20,14,1.60
2017,08,04,20,15,1.60
2017,08,04,20,16,1.60
2017,08,04,20,17,1.60
2017,08,04,20,18,3.20
2017,08,04,20,19,1.60
2017,08,04,20,21,3.20
2017,08,04,20,22,3.20
2017,08,04,20,23,3.20
2017,08,04,20,24,3.20
2017,08,04,20,25,3.20
2017,08,04,20,26,1.60
2017,08,04,20,36,1.60
2017,08,04,20,41,1.60
2017,08,04,20,42,1.60
2017,08,04,20,43,1.60
2017,08,04,20,47,1.60
2017,08,04,22,36,1.60
2017,08,04,22,37,1.60
2017,08,04,22,38,1.60
2017,08,04,22,39,1.60
2017,08,04,22,40,1.60
2017,08,04,22,42,1.60
2017,08,04,23,03,1.60
2017,08,04,23,04,1.60
2017,08,04,23,05,1.60
2017,08,04,23,14,1.60
2017,08,04,23,18,1.60
2017,08,04,23,23,1.60
2017,08,04,23,24,1.60
2017,08,04,23,25,1.60
2017,08,04,23,48,1.60
2017,08,04,23,49,1.60
